Powrót do katalogu

FENGYUN 1C DEB

AktywnyPO
NORAD 31208·DEBRIS·🇨🇳 China

Wystrzelony May 10, 1999 z Taiyuan Satellite Launch Center

Loading…

Następne Przeloty (najbliższe 24 godziny)

TLE

ŚwieżeSource: Space-Track

Epoka: Sep 12, 2026, 23:46 UTC

1 31208U 99025BKN 26255.99065238  .00006029  00000-0  10540-2 0  9990
2 31208  99.2565  78.8650 0013061 144.9088   6.8468 14.68273992744964

Śledź FENGYUN 1C DEB w czasie rzeczywistym z AllMySat

Download on the App Store